GLO2800 SBSP-SBRJ

Flight info

Callsign GLO2800
Flight time 0h 36m
Altitude 270
Route SBSP/35L N0456F270 DCT NIBRU UZ171 KEVUN DCT SBRJ/20L
Aircraft B737/M-SDE2E3FGHIRWXY/LB1

Departure

Time 2026-05-07 21:30
Airport Congonhas–Deputado Freitas Nobre Airport (SBSP)

Arrival

Time 2026-05-07 22:06
Airport Santos Dumont Airport (SBRJ)
Time Latitude Longitude Altitude Speed Heading
2026-05-07 20:59 -23.62925 -46.65773 2599 ft 0 kts 328°
2026-05-07 21:19 -23.62926 -46.65772 2599 ft 2 kts 328°
2026-05-07 21:19 -23.62941 -46.65762 2599 ft 2 kts 327°
2026-05-07 21:19 -23.62957 -46.65756 2599 ft 3 kts 39°
2026-05-07 21:19 -23.62960 -46.65759 2599 ft 0 kts 59°
2026-05-07 21:21 -23.62956 -46.65752 2599 ft 6 kts 59°
2026-05-07 21:21 -23.62931 -46.65706 2600 ft 7 kts 59°
2026-05-07 21:22 -23.62906 -46.65661 2600 ft 7 kts 58°
2026-05-07 21:22 -23.62889 -46.65614 2601 ft 7 kts 91°
2026-05-07 21:22 -23.62919 -46.65578 2602 ft 7 kts 144°
2026-05-07 21:22 -23.62957 -46.65549 2602 ft 7 kts 146°
2026-05-07 21:23 -23.62998 -46.65527 2602 ft 7 kts 164°
2026-05-07 21:23 -23.63066 -46.65512 2601 ft 12 kts 159°
2026-05-07 21:23 -23.63141 -46.65463 2601 ft 13 kts 147°
2026-05-07 21:23 -23.63213 -46.65412 2601 ft 12 kts 146°
2026-05-07 21:24 -23.63283 -46.65361 2601 ft 12 kts 146°
2026-05-07 21:24 -23.63352 -46.65313 2601 ft 12 kts 148°
2026-05-07 21:24 -23.63420 -46.65268 2601 ft 11 kts 148°
2026-05-07 21:24 -23.63474 -46.65231 2600 ft 0 kts 147°
2026-05-07 21:25 -23.63474 -46.65230 2600 ft 0 kts 147°
2026-05-07 21:25 -23.63485 -46.65223 2600 ft 7 kts 147°
2026-05-07 21:25 -23.63482 -46.65146 2594 ft 13 kts 40°
2026-05-07 21:25 -23.63437 -46.65122 2599 ft 4 kts
2026-05-07 21:26 -23.63417 -46.65128 2601 ft 0 kts 325°
2026-05-07 21:29 -23.63359 -46.65169 2605 ft 40 kts 328°
2026-05-07 21:30 -23.62888 -46.65491 2607 ft 118 kts 328°
2026-05-07 21:30 -23.62000 -46.66095 2728 ft 173 kts 330°
2026-05-07 21:30 -23.60865 -46.66752 3361 ft 195 kts 342°
2026-05-07 21:30 -23.59493 -46.66908 4126 ft 202 kts 358°
2026-05-07 21:31 -23.58090 -46.66799 4848 ft 209 kts 19°
2026-05-07 21:31 -23.56986 -46.65722 5317 ft 229 kts 57°
2026-05-07 21:31 -23.56520 -46.63968 5648 ft 254 kts 80°
2026-05-07 21:31 -23.56456 -46.62007 6237 ft 265 kts 85°
2026-05-07 21:32 -23.56479 -46.59917 6738 ft 282 kts 87°
2026-05-07 21:32 -23.56526 -46.57757 7498 ft 287 kts 87°
2026-05-07 21:32 -23.56572 -46.55602 8315 ft 289 kts 87°
2026-05-07 21:32 -23.56614 -46.53368 9166 ft 293 kts 87°
2026-05-07 21:33 -23.56650 -46.51140 10008 ft 296 kts 86°
2026-05-07 21:33 -23.56680 -46.48885 10532 ft 311 kts 87°
2026-05-07 21:33 -23.56706 -46.46433 10708 ft 336 kts 87°
2026-05-07 21:33 -23.56730 -46.43796 10878 ft 359 kts 87°
2026-05-07 21:34 -23.56756 -46.40999 11113 ft 377 kts 88°
2026-05-07 21:34 -23.56784 -46.38118 11634 ft 383 kts 88°
2026-05-07 21:34 -23.56813 -46.35207 12264 ft 385 kts 88°
2026-05-07 21:34 -23.56841 -46.32276 12899 ft 387 kts 88°
2026-05-07 21:35 -23.56867 -46.29327 13521 ft 390 kts 88°
2026-05-07 21:35 -23.56891 -46.26366 14055 ft 392 kts 88°
2026-05-07 21:35 -23.56915 -46.23371 14503 ft 397 kts 88°
2026-05-07 21:35 -23.56938 -46.20346 14952 ft 400 kts 88°
2026-05-07 21:36 -23.56959 -46.17333 15388 ft 404 kts 88°
2026-05-07 21:36 -23.56981 -46.14262 15882 ft 406 kts 88°
2026-05-07 21:36 -23.57002 -46.11171 16338 ft 410 kts 88°
2026-05-07 21:36 -23.57022 -46.08043 16778 ft 413 kts 88°
2026-05-07 21:37 -23.57042 -46.04891 17225 ft 417 kts 88°
2026-05-07 21:37 -23.57062 -46.01720 17667 ft 420 kts 88°
2026-05-07 21:37 -23.57081 -45.98525 18097 ft 424 kts 88°
2026-05-07 21:37 -23.57099 -45.95304 18496 ft 426 kts 88°
2026-05-07 21:38 -23.57118 -45.92061 18858 ft 430 kts 89°
2026-05-07 21:38 -23.57130 -45.89885 19060 ft 433 kts 88°
2026-05-07 21:38 -23.57152 -45.85466 19481 ft 439 kts 89°
2026-05-07 21:38 -23.57166 -45.82165 19806 ft 443 kts 89°
2026-05-07 21:39 -23.57184 -45.78794 20128 ft 446 kts 89°
2026-05-07 21:39 -23.57201 -45.75406 20536 ft 448 kts 89°
2026-05-07 21:39 -23.57211 -45.73152 20773 ft 449 kts 89°
2026-05-07 21:39 -23.57225 -45.69686 21078 ft 454 kts 90°
2026-05-07 21:40 -23.57243 -45.65148 21923 ft 446 kts 90°
2026-05-07 21:40 -23.57251 -45.62918 22481 ft 441 kts 90°
2026-05-07 21:40 -23.57263 -45.59617 23454 ft 429 kts 90°
2026-05-07 21:40 -23.57273 -45.56412 24355 ft 416 kts 91°
2026-05-07 21:41 -23.57282 -45.53300 25172 ft 408 kts 91°
2026-05-07 21:41 -23.57291 -45.50199 25627 ft 411 kts 91°
2026-05-07 21:41 -23.57248 -45.47066 25946 ft 417 kts 86°
2026-05-07 21:41 -23.56792 -45.43925 26322 ft 421 kts 78°
2026-05-07 21:42 -23.56135 -45.40844 26748 ft 423 kts 77°
2026-05-07 21:42 -23.55436 -45.37709 27000 ft 429 kts 77°
2026-05-07 21:42 -23.54723 -45.34513 27004 ft 439 kts 77°
2026-05-07 21:42 -23.54002 -45.31236 27004 ft 448 kts 77°
2026-05-07 21:43 -23.53280 -45.27897 27021 ft 457 kts 77°
2026-05-07 21:43 -23.52549 -45.24484 27014 ft 466 kts 77°
2026-05-07 21:43 -23.51812 -45.21018 27016 ft 473 kts 77°
2026-05-07 21:43 -23.51065 -45.17504 27005 ft 480 kts 77°
2026-05-07 21:44 -23.50304 -45.13929 27000 ft 486 kts 77°
2026-05-07 21:44 -23.49536 -45.10326 26997 ft 492 kts 77°
2026-05-07 21:44 -23.48758 -45.06681 26999 ft 496 kts 77°
2026-05-07 21:44 -23.47970 -45.02998 26996 ft 501 kts 77°
2026-05-07 21:45 -23.47028 -44.99334 26990 ft 504 kts 72°
2026-05-07 21:45 -23.45855 -44.95731 27013 ft 505 kts 70°
2026-05-07 21:45 -23.44618 -44.92198 26992 ft 505 kts 69°
2026-05-07 21:45 -23.43345 -44.88630 26990 ft 506 kts 69°
2026-05-07 21:46 -23.42077 -44.85058 26993 ft 506 kts 69°
2026-05-07 21:46 -23.40822 -44.81471 26835 ft 508 kts 70°
2026-05-07 21:46 -23.39573 -44.77848 25947 ft 512 kts 70°
2026-05-07 21:46 -23.38337 -44.74226 25034 ft 510 kts 69°
2026-05-07 21:47 -23.37111 -44.70613 24155 ft 503 kts 69°
2026-05-07 21:47 -23.35921 -44.67098 23435 ft 487 kts 69°
2026-05-07 21:47 -23.34764 -44.63691 22596 ft 473 kts 69°
2026-05-07 21:47 -23.33636 -44.60379 21791 ft 460 kts 69°
2026-05-07 21:48 -23.32540 -44.57164 21025 ft 447 kts 69°
2026-05-07 21:48 -23.31473 -44.54036 20279 ft 435 kts 69°
2026-05-07 21:48 -23.30433 -44.50988 19553 ft 424 kts 69°
2026-05-07 21:48 -23.29417 -44.48012 18858 ft 414 kts 69°
2026-05-07 21:49 -23.28427 -44.45115 18159 ft 404 kts 69°
2026-05-07 21:49 -23.27460 -44.42286 17376 ft 395 kts 69°
2026-05-07 21:49 -23.26527 -44.39558 16665 ft 386 kts 68°
2026-05-07 21:49 -23.25606 -44.36863 16301 ft 368 kts 68°
2026-05-07 21:50 -23.24749 -44.34358 16370 ft 341 kts 68°
2026-05-07 21:50 -23.23951 -44.32021 16395 ft 318 kts 68°
2026-05-07 21:50 -23.23183 -44.29782 16438 ft 317 kts 68°
2026-05-07 21:50 -23.22408 -44.27528 16482 ft 321 kts 68°
2026-05-07 21:51 -23.21623 -44.25246 16487 ft 322 kts 68°
2026-05-07 21:51 -23.20841 -44.22970 16485 ft 321 kts 68°
2026-05-07 21:51 -23.20262 -44.20639 16458 ft 322 kts 86°
2026-05-07 21:51 -23.20383 -44.18221 16480 ft 319 kts 84°
2026-05-07 21:52 -23.19802 -44.15942 16523 ft 312 kts 64°
2026-05-07 21:52 -23.18856 -44.13792 16490 ft 316 kts 64°
2026-05-07 21:52 -23.17916 -44.11625 16400 ft 319 kts 64°
2026-05-07 21:52 -23.17002 -44.09411 16171 ft 321 kts 64°
2026-05-07 21:53 -23.16102 -44.07203 15967 ft 318 kts 64°
2026-05-07 21:53 -23.15216 -44.05012 15767 ft 316 kts 65°
2026-05-07 21:53 -23.14338 -44.02837 15554 ft 313 kts 65°
2026-05-07 21:53 -23.13469 -44.00677 15323 ft 311 kts 64°
2026-05-07 21:54 -23.12622 -43.98543 15072 ft 311 kts 64°
2026-05-07 21:54 -23.11755 -43.96360 14803 ft 311 kts 65°
2026-05-07 21:54 -23.10894 -43.94230 14549 ft 312 kts 64°
2026-05-07 21:54 -23.10015 -43.92063 14163 ft 315 kts 64°
2026-05-07 21:55 -23.09129 -43.89883 13758 ft 316 kts 65°
2026-05-07 21:55 -23.08237 -43.87684 13218 ft 320 kts 64°
2026-05-07 21:55 -23.07338 -43.85457 12696 ft 323 kts 64°
2026-05-07 21:55 -23.06436 -43.83207 12174 ft 326 kts 64°
2026-05-07 21:56 -23.05543 -43.80943 11669 ft 328 kts 64°
2026-05-07 21:56 -23.04659 -43.78653 11164 ft 330 kts 65°
2026-05-07 21:56 -23.03773 -43.76350 10672 ft 331 kts 65°
2026-05-07 21:56 -23.02896 -43.74047 10181 ft 325 kts 64°
2026-05-07 21:57 -23.02052 -43.71813 9794 ft 315 kts 65°
2026-05-07 21:57 -23.01236 -43.69637 9355 ft 307 kts 65°
2026-05-07 21:57 -23.00444 -43.67509 8918 ft 300 kts 64°
2026-05-07 21:57 -22.99677 -43.65429 8495 ft 294 kts 64°
2026-05-07 21:58 -22.98931 -43.63388 8093 ft 288 kts 64°
2026-05-07 21:58 -22.98202 -43.61378 7736 ft 286 kts 65°
2026-05-07 21:58 -22.97484 -43.59395 7391 ft 287 kts 65°
2026-05-07 21:58 -22.96755 -43.57372 7050 ft 288 kts 65°
2026-05-07 21:59 -22.96032 -43.55350 6703 ft 289 kts 65°
2026-05-07 21:59 -22.95303 -43.53309 6326 ft 290 kts 64°
2026-05-07 21:59 -22.94587 -43.51292 6079 ft 281 kts 65°
2026-05-07 21:59 -22.93907 -43.49365 6017 ft 264 kts 64°
2026-05-07 22:00 -22.93285 -43.47561 5980 ft 246 kts 64°
2026-05-07 22:00 -22.92708 -43.45869 5993 ft 235 kts 64°
2026-05-07 22:00 -22.92164 -43.44209 5954 ft 233 kts 66°
2026-05-07 22:00 -22.91662 -43.42551 5753 ft 232 kts 67°
2026-05-07 22:01 -22.91119 -43.40857 5072 ft 245 kts 66°
2026-05-07 22:01 -22.90516 -43.39075 4434 ft 253 kts 64°
2026-05-07 22:01 -22.89887 -43.37345 4309 ft 238 kts 64°
2026-05-07 22:01 -22.89260 -43.35713 3999 ft 237 kts 64°
2026-05-07 22:02 -22.88613 -43.34041 3619 ft 241 kts 64°
2026-05-07 22:02 -22.87960 -43.32391 3192 ft 239 kts 64°
2026-05-07 22:02 -22.87418 -43.30730 2755 ft 228 kts 73°
2026-05-07 22:02 -22.87025 -43.29112 2345 ft 215 kts 74°
2026-05-07 22:03 -22.86690 -43.27613 1921 ft 195 kts 76°
2026-05-07 22:03 -22.86401 -43.26250 1700 ft 172 kts 75°
2026-05-07 22:03 -22.86192 -43.24975 1715 ft 173 kts 81°
2026-05-07 22:03 -22.86044 -43.23683 1727 ft 171 kts 81°
2026-05-07 22:04 -22.85919 -43.22449 1704 ft 159 kts 84°
2026-05-07 22:04 -22.85876 -43.21290 1731 ft 153 kts 90°
2026-05-07 22:04 -22.85962 -43.20145 1621 ft 153 kts 93°
2026-05-07 22:04 -22.86078 -43.19007 1462 ft 150 kts 97°
2026-05-07 22:05 -22.86415 -43.17935 1344 ft 154 kts 114°
2026-05-07 22:05 -22.87048 -43.16977 974 ft 158 kts 134°
2026-05-07 22:05 -22.87993 -43.16420 540 ft 156 kts 166°
2026-05-07 22:05 -22.89034 -43.16367 226 ft 149 kts 180°
2026-05-07 22:06 -22.90063 -43.16342 111 ft 145 kts 174°
2026-05-07 22:06 -22.90980 -43.16285 22 ft 97 kts 177°
2026-05-07 22:06 -22.91359 -43.16262 21 ft 44 kts 176°
2026-05-07 22:06 -22.91491 -43.16258 19 ft 8 kts 198°
2026-05-07 22:07 -22.91519 -43.16292 20 ft 0 kts 253°
2026-05-07 22:07 -22.91523 -43.16310 18 ft 9 kts 258°
2026-05-07 22:07 -22.91512 -43.16384 20 ft 10 kts 302°
2026-05-07 22:08 -22.91464 -43.16441 21 ft 10 kts 316°
2026-05-07 22:08 -22.91412 -43.16490 21 ft 10 kts 330°
2026-05-07 22:08 -22.91346 -43.16504 21 ft 10 kts 359°
2026-05-07 22:08 -22.91285 -43.16509 22 ft 4 kts 331°
2026-05-07 22:09 -22.91277 -43.16527 21 ft 3 kts 276°
2026-05-07 22:09 -22.91281 -43.16568 24 ft 4 kts 265°
2026-05-07 22:09 -22.91282 -43.16577 22 ft 0 kts 265°